Find Starlink 30711

NORAD ID: 57940 Int'l Des: 2023-148 Owner: SPXS Country: US Constellation: starlink operational
LEOCIRCULAR

Current View

Loading 3D Globe...

About Starlink 30711

Starlink 30711 (NORAD 57940) is a starlink constellation satellite (v2 mini) launched Sep 25, 2023 by SPXS of US. It operates in LEO, CIRCULAR orbit with a mass of 730.00 kg.

About Starlink 30711

Description loading...

Upcoming Passes

Passes for default location (London). Set your location on the main map for personalized predictions.

Altitude History

Loading altitude history...

Two-Line Element Set

1 57940U 23148F 26166.49843340 .00020290 00000-0 69522-3 0 9999
2 57940 53.1590 290.1571 0001094 88.1723 271.9403 15.30203603153398
Epoch: Jun 15, 2026 • Age: 4 hours

Current Status

Altitude 494.3 km
Velocity 7.62 km/s
Sub-Earth Point -52.75°S, 62.32°E
Launch Date Sep 25, 2023
Age 2.7 years
Type internet

Technical Details

Classification Payload
Mass 730.00 kg
Dry Mass 700.00 kg
Total Mass 730.00 kg
Length 0.30 m
Diameter 4.10 m
Span 29.00 m
Shape Box + pan
Manufacturer SPXS
Bus Type Starlink V2M
Phase Status In Orbit
Owner/State SPXS/US

Most Searched